Date,TemperatureHighF,TemperatureAvgF,TemperatureLowF,DewpointHighF,DewpointAvgF,DewpointLowF,HumidityHigh,HumidityAvg,HumidityLow,PressureMaxIn,PressureMinIn,WindSpeedMaxMPH,WindSpeedAvgMPH,GustSpeedMaxMPH,PrecipitationSumIn
2013-2-1,33.0,24.1,11.9,18.6,7.8,0.7,62,50,39,29.96,29.33,23,5,25,0.00
2013-2-2,25.5,16.3,7.7,18.0,4.7,-1.3,94,61,38,30.17,29.96,14,2,18,0.00
2013-2-3,26.9,22.2,19.5,21.0,18.4,16.5,92,85,76,30.06,29.61,17,3,20,0.02
2013-2-4,26.6,20.7,13.7,16.8,8.6,-6.9,85,61,36,29.77,29.50,28,6,32,0.00
2013-2-5,21.7,12.2,6.7,2.5,-2.5,-6.3,79,52,31,30.02,29.77,16,2,17,0.00
2013-2-6,34.1,20.5,5.7,30.4,13.0,0.2,92,73,46,30.19,29.88,17,2,18,0.04
2013-2-7,16.1,6.6,-4.7,99.9,6.5,-99.9,81,54,31,30.60,30.19,19,4,21,0.00
2013-2-8,18.6,9.6,-4.0,99.9,12.1,-47.1,92,76,59,30.61,29.94,21,3,25,0.00
2013-2-9,17.4,14.0,9.7,14.7,11.4,7.2,91,89,83,29.95,29.62,44,12,54,0.00
2013-2-10,32.5,20.2,6.8,11.6,8.4,2.1,84,61,39,30.32,29.95,25,6,33,0.00
2013-2-11,41.4,20.7,-1.8,99.9,32.8,-2.9,100,86,67,30.32,29.51,18,1,18,0.40
2013-2-12,43.4,38.4,34.0,39.5,33.5,30.3,98,83,67,29.68,29.43,18,3,19,0.04
2013-2-13,44.5,36.7,31.2,30.3,27.6,24.3,87,70,48,29.75,29.66,18,2,18,0.00
2013-2-14,39.7,31.2,20.3,26.1,21.2,17.5,92,68,43,29.98,29.68,14,3,18,0.00
2013-2-15,43.5,32.9,18.4,37.6,29.3,16.3,98,87,69,30.00,29.92,18,2,21,0.00
2013-2-16,41.5,34.0,28.2,38.3,31.9,26.7,100,92,78,29.92,29.71,19,3,22,0.00
2013-2-17,28.2,23.2,18.4,27.5,21.0,14.9,100,91,85,29.71,28.89,34,12,42,0.00
2013-2-18,29.1,21.6,15.7,14.8,7.6,3.4,85,55,44,29.82,29.16,32,11,43,0.00
2013-2-19,45.2,31.4,20.6,37.3,16.5,4.0,95,56,31,30.04,29.73,15,3,21,0.00
2013-2-20,43.8,37.5,29.8,43.2,31.6,19.2,98,80,63,29.74,29.35,20,4,29,0.00
2013-2-21,34.4,29.6,24.7,30.4,21.8,15.9,93,72,61,30.04,29.52,22,6,30,0.00
2013-2-22,39.3,31.4,21.1,27.4,22.1,18.1,89,69,49,30.36,30.04,22,4,22,0.00
2013-2-23,33.1,27.3,19.9,25.6,22.7,17.8,93,83,72,30.36,30.06,12,1,14,0.00
2013-2-24,32.7,29.7,27.8,28.1,25.2,21.5,93,83,75,30.06,29.78,13,2,16,0.00
2013-2-25,38.6,27.5,18.5,21.5,16.5,9.9,84,65,32,30.21,29.84,18,3,19,0.02
2013-2-26,43.9,27.5,12.6,25.0,18.5,9.1,92,71,38,30.34,30.21,12,1,12,0.00
2013-2-27,40.5,31.0,19.5,32.0,24.8,17.5,95,79,57,30.29,29.80,23,2,26,0.00
2013-2-28,37.9,34.9,32.2,37.1,34.0,30.8,98,97,95,29.80,29.50,21,3,21,0.18